Terminal Aerodrome Forecast
Issued by NWS Raleigh/Durham, NC

Home | Current Version | Previous Version | Text Only | Print | Product List | Glossary On
Versions: 1 2 3 4 5 6 7 8 9 10 11 12 13 14 15 16 17 18 19 20 21 22 23 24 25 26 27 28 29 30 31 32 33 34 35 36 37 38 39 40 41 42
000
FTUS42 KRAH 040645 AAA
TAFFAY
TAF AMD
KFAY 040645Z 0407/0506 24010KT P6SM SCT060 BKN250
     FM041400 25016G24KT P6SM FEW045 SCT150 PROB30 0416/0420
      VRB15G30KT 5SM -TSRA SCT020 BKN035CB=

USA.gov is the U.S. government's official web portal to all federal, state and local government web resources and services.